This is the latest recevied weather packets stored in our database for station/object KG7FOQ-13. If no packets are shown the sender has not sent any weather packets the latest 10 day(s).
| Time | Temp. | Humidity | Pressure | Rain* | Wind** | Luminosity | Snow |
|---|---|---|---|---|---|---|---|
| 1787974106 | 18.89° C | 76% | 1017.1 hPa | 0 mm | - | - | - |
| 1787973505 | 18.89° C | 76% | 1017.1 hPa | 0 mm | - | - | - |
| 1787973205 | 18.33° C | 77% | 1017.1 hPa | 0 mm | - | - | - |
| 1787972904 | 18.33° C | 79% | 1017.2 hPa | 0 mm | - | - | - |
| 1787972604 | 18.33° C | 79% | 1017.2 hPa | 0 mm | - | - | - |
| 1787972303 | 18.89° C | 78% | 1017.2 hPa | 0 mm | - | - | - |
| 1787972003 | 18.89° C | 77% | 1017.1 hPa | 0 mm | - | - | - |
| 1787971703 | 18.89° C | 74% | 1017.3 hPa | 0 mm | - | - | - |
| 1787971402 | 19.44° C | 71% | 1017.2 hPa | 0 mm | - | - | - |
| 1787971102 | 19.44° C | 71% | 1017.4 hPa | 0 mm | - | - | - |
| 1787970501 | 19.44° C | 72% | 1017.4 hPa | 0 mm | - | - | - |
| 1787970202 | 19.44° C | 72% | 1017.4 hPa | 0 mm | - | - | - |
| 1787969900 | 19.44° C | 71% | 1017.3 hPa | 0 mm | - | - | - |
| 1787969600 | 19.44° C | 70% | 1017.4 hPa | 0 mm | - | - | - |
| 1787969299 | 20° C | 68% | 1017.3 hPa | 0 mm | - | - | - |
| 1787968999 | 20° C | 64% | 1017.2 hPa | 0 mm | - | - | - |
| 1787968698 | 20° C | 67% | 1017.2 hPa | 0 mm | - | - | - |
| 1787968398 | 20° C | 68% | 1017.2 hPa | 0 mm | - | - | - |
| 1787968097 | 20° C | 70% | 1017.4 hPa | 0 mm | - | - | - |
| 1787967797 | 20° C | 70% | 1017.4 hPa | 0 mm | - | - | - |
| 1787967496 | 20° C | 69% | 1017.7 hPa | 0 mm | - | - | - |
| 1787967197 | 20° C | 69% | 1017.8 hPa | 0 mm | - | - | - |
| 1787966895 | 20° C | 67% | 1017.7 hPa | 0 mm | - | - | - |
| 1787966596 | 21.11° C | 62% | 1017.5 hPa | 0 mm | - | - | - |
| 1787966295 | 20.56° C | 63% | 1017.4 hPa | 0 mm | - | - | - |
* Rain latest hour (hover to see other rain measurements)
** Current wind speed in m/s (hover to see current wind gust speed)